Barrow, AK

9:52 PM AKST on February 19, 2018 (GMT -0900)
Wiley Post-Will Rogers Memorial

Weather History for PABR - July, 2013

Change the Weather History Date:

Saturday, July 13, 2013

  Actual Average Record
Temperature  
Mean Temperature 44 °F 41 °F  
Max Temperature 49 °F 47 °F 79 °F (1993)
Min Temperature 38 °F 35 °F 27 °F (1945)
Degree Days  
Heating Degree Days 21 24  
Month to date heating degree days 287 315  
Since 1 June heating degree days 1065 1195  
Since 1 July heating degree days 287 315  
Cooling Degree Days 0    
Month to date cooling degree days 0  
Year to date cooling degree days 0  
Since 1 June cooling degree days 0  
Moisture  
Dew Point 34 °F    
Average Humidity 0    
Maximum Humidity 0    
Minimum Humidity 0    
Precipitation  
Precipitation 0.00 in 0.03 in 0.41 in (1981)
Month to date precipitation 0.53 0.37  
Year to date precipitation 2.52 1.39  
Snow  
Snow 0.00 in 0.00 in 3.00 in (1934)
Month to date snowfall 0.0 0.1  
Since 1 June snowfall 0.3 0.8  
Since 1 July snowfall 0.0 0.1  
Snow Depth 0.00 in    
Sea Level Pressure  
Sea Level Pressure 30.15 in    
Wind  
Wind Speed 15 mph (East)    
Max Wind Speed 22 mph    
Max Gust Speed 25 mph    
Visibility 10 miles    
Events      
T = Trace of Precipitation, MM = Missing Value Source: NWS Daily Summary

Daily Weather History Graph

Daily Weather History Graph

Search for Another Location

Airport or City:

Trip Planner

Search our weather history database for the weather conditions in past years. The results will help you decide how hot, cold, wet, or windy it might be!

Date:

Astronomy

Dec. 31, 1969 Rise Set
Actual Time Sun does not rise Sun does not rise
Civil Twilight Sun does not rise Sun does not rise
Nautical Twilight Sun does not rise Sun does not rise
Astronomical Twilight Sun does not rise Sun does not rise
Moon 12:49 PM AKDT (7/13) 12:19 AM AKDT (7/13)
Length of Visible Light 24h 00m
Length of Day
24h 00m
Waxing Crescent, 27% of the Moon is Illuminated
Jul 13
Waxing Crescent
Jul 15
First Quarter
Jul 22
Full
Jul 29
Last Quarter
Aug 6
New

Hourly Weather History & Observations

Time (AKDT) Temp. Windchill Dew Point Humidity Pressure Visibility Wind Dir Wind Speed Gust Speed Precip Events Conditions
12:53 AM 39.9 °F 32.5 °F 33.1 °F 77% 30.18 in 10.0 mi East 12.7 mph - N/A   Partly Cloudy
1:53 AM 39.0 °F 31.8 °F 33.1 °F 79% 30.18 in 10.0 mi East 11.5 mph - N/A   Partly Cloudy
2:53 AM 37.9 °F 30.5 °F 33.1 °F 83% 30.17 in 10.0 mi East 11.5 mph - N/A   Partly Cloudy
3:53 AM 37.9 °F 30.5 °F 33.1 °F 83% 30.16 in 10.0 mi East 11.5 mph - N/A   Scattered Clouds
4:53 AM 37.9 °F 30.5 °F 32.0 °F 79% 30.16 in 10.0 mi East 11.5 mph - N/A   Scattered Clouds
5:53 AM 37.9 °F 30.5 °F 32.0 °F 79% 30.16 in 10.0 mi East 11.5 mph - N/A   Partly Cloudy
6:53 AM 39.9 °F 32.9 °F 33.1 °F 77% 30.15 in 10.0 mi East 11.5 mph - N/A   Clear
7:53 AM 42.1 °F 35.7 °F 34.0 °F 73% 30.15 in 10.0 mi East 11.5 mph - N/A   Clear
8:53 AM 42.1 °F 34.9 °F 34.0 °F 73% 30.15 in 10.0 mi East 13.8 mph - N/A   Clear
9:53 AM 44.1 °F 37.4 °F 35.1 °F 71% 30.15 in 10.0 mi East 13.8 mph - N/A   Clear
10:53 AM 46.0 °F 39.9 °F 36.0 °F 68% 30.15 in 10.0 mi East 13.8 mph - N/A   Clear
11:53 AM 46.9 °F - 35.1 °F 63% 30.15 in 10.0 mi East 15.0 mph - N/A   Clear
12:53 PM 46.9 °F - 35.1 °F 63% 30.15 in 10.0 mi East 15.0 mph - N/A   Clear
1:53 PM 48.0 °F - 36.0 °F 63% 30.15 in 10.0 mi East 18.4 mph - N/A   Clear
2:53 PM 48.0 °F - 35.1 °F 61% 30.14 in 10.0 mi East 19.6 mph - N/A   Clear
3:53 PM 48.0 °F - 36.0 °F 63% 30.14 in 10.0 mi East 18.4 mph - N/A   Clear
4:53 PM 48.0 °F - 35.1 °F 61% 30.14 in 10.0 mi East 19.6 mph - N/A   Clear
5:53 PM 46.9 °F - 35.1 °F 63% 30.14 in 10.0 mi East 18.4 mph - N/A   Clear
6:53 PM 46.0 °F 38.8 °F 37.0 °F 71% 30.13 in 10.0 mi East 18.4 mph - N/A   Clear
7:53 PM 46.0 °F 39.0 °F 37.0 °F 71% 30.13 in 10.0 mi East 17.3 mph - N/A   Clear
8:53 PM 45.0 °F 37.9 °F 35.1 °F 68% 30.13 in 10.0 mi East 16.1 mph - N/A   Clear
9:53 PM 43.0 °F 35.1 °F 34.0 °F 71% 30.12 in 10.0 mi East 17.3 mph - N/A   Partly Cloudy
10:53 PM 42.1 °F 33.6 °F 33.1 °F 70% 30.12 in 10.0 mi East 18.4 mph - N/A   Scattered Clouds
11:53 PM 41.0 °F 32.2 °F 33.1 °F 73% 30.12 in 10.0 mi East 18.4 mph - N/A   Scattered Clouds